This is the latest recevied weather packets stored in our database for station/object N7MLR. If no packets are shown the sender has not sent any weather packets the latest 10 day(s).
| Time | Temp. | Humidity | Pressure | Rain* | Wind** | Luminosity | Snow |
|---|---|---|---|---|---|---|---|
| 1778070418 | 22.78° C | 96% | 1008.5 hPa | 0 mm | - | 11 W/m² | - |
| 1778070116 | 22.78° C | 96% | 1008.8 hPa | 0 mm | - | 5 W/m² | - |
| 1778069813 | 22.78° C | 96% | 1008.8 hPa | 0 mm | - | 6 W/m² | - |
| 1778069509 | 22.78° C | 96% | 1008.6 hPa | 0 mm | - | 4 W/m² | - |
| 1778069207 | 22.78° C | 96% | 1008.6 hPa | 0 mm | - | 3 W/m² | - |
| 1778068904 | 22.78° C | 96% | 1008.6 hPa | 0 mm | - | 0 W/m² | - |
| 1778068603 | 22.78° C | 96% | 1008.7 hPa | 0 mm | - | 0 W/m² | - |
| 1778068301 | 22.78° C | 96% | 1008.6 hPa | 0 mm | - | 0 W/m² | - |
| 1778067998 | 22.78° C | 96% | 1008.5 hPa | 0 mm | - | 0 W/m² | - |
| 1778067696 | 22.78° C | 96% | 1008.4 hPa | 0 mm | - | 0 W/m² | - |
| 1778067394 | 22.78° C | 96% | 1008.5 hPa | 0 mm | - | 0 W/m² | - |
| 1778067091 | 22.78° C | 96% | 1008.5 hPa | 0 mm | - | 0 W/m² | - |
| 1778066787 | 22.78° C | 96% | 1008.6 hPa | 0 mm | - | 0 W/m² | - |
| 1778066484 | 22.78° C | 96% | 1008.6 hPa | 0 mm | - | 0 W/m² | - |
| 1778066182 | 22.78° C | 96% | 1008.4 hPa | 0 mm | - | 0 W/m² | - |
| 1778065880 | 22.78° C | 96% | 1008.5 hPa | 0 mm | - | 0 W/m² | - |
| 1778065577 | 22.78° C | 96% | 1008.3 hPa | 0 mm | - | 0 W/m² | - |
| 1778065274 | 22.78° C | 96% | 1008.4 hPa | 0 mm | - | 0 W/m² | - |
| 1778064970 | 22.78° C | 96% | 1008.6 hPa | 0 mm | - | 0 W/m² | - |
| 1778064668 | 22.78° C | 96% | 1008.5 hPa | 0 mm | - | 0 W/m² | - |
| 1778064366 | 22.78° C | 96% | 1008.5 hPa | 0 mm | - | 0 W/m² | - |
| 1778064063 | 22.78° C | 96% | 1008.5 hPa | 0 mm | - | 0 W/m² | - |
| 1778063760 | 22.78° C | 96% | 1008.4 hPa | 0 mm | - | 0 W/m² | - |
| 1778063456 | 22.78° C | 96% | 1008.4 hPa | 0 mm | - | 0 W/m² | - |
| 1778063155 | 22.78° C | 96% | 1008.5 hPa | 0 mm | - | 0 W/m² | - |
* Rain latest hour (hover to see other rain measurements)
** Current wind speed in m/s (hover to see current wind gust speed)